COSMOS 2251 DEB, 34969

Orbit data source: Space-Track

COSMOS 2251 DEB, 34969 is space debris in LEO originally from a launch on Wed, 16 Jun 1993 UTC launched from the Plesetsk Missile And Space Complex (PKMTR). The debris from Iridium 33, an American commercial communications satellite, has been tracked extensively since its accidental collision with the defunct Russian satellite Cosmos 2251 in 2009. This event, occurring at high speed in low Earth orbit (LEO), generated thousands of pieces of space debris, significantly increasing the risk of further collisions. The Iridium 33 debris cloud has impacted space traffic management and orbital debris mitigation strategies, making it a subject of ongoing study in space situational awareness.

Loading next visibility...
Identifier
34969, 1993-036AEY
Orbit
LEO
Country
Flag of CISCIS
Related business
Manufacturer
Unknown
Mission
Spacecraft
Bus & Motor
Unknown
Mass
Unknown
Launch date (UTC)
1993-06-16 (33 years ago)
Launch vehicle
Unknown
Launch site
Plesetsk Missile And Space Complex (PKMTR)
Object type
Payload
Rocket body
Debris
Shape & HBR
Unknown shape, 0.1 m
Radar Cross Section
Small (<0.1 m²)

Expand to show TLE details & history
Last TLE update: 3 days ago

TLE from 3 days ago
0 COSMOS 2251 DEB
1 34969U 93036AEY 26148.53115286  .00000693  00000-0  25690-3 0  9997
2 34969  74.0139  78.2870 0074750 171.6735 188.5677 14.32529433675255
Epoch: 2026-05-28T12:44Z
TLE epoch observation values (Epoch: 2026-05-28T12:44:51.607Z)
Latitude
Longitude
0.99742°
Altitude
838.846 km
Speed
7.406 km/s
True Right ascension
05h 13m 08s
True Declination
0° 00' 00"
Sunlit
Object was in daylight at epoch
Visualization orbit readout
Latitude
Unknown
Longitude
Unknown
Altitude
Unknown
Speed
Unknown
Apparent Right ascension
Unknown
Apparent Declination
Unknown
Sunlit
N/A
Visualization observer readout
Local Sidereal Time
20:32:37
Azimuth
Unknown
Elevation
Unknown
Doppler factor
Unknown
Orbital elements
Apogee altitude
834.432 km
Perigee altitude
727.404 km
Semi-major axis
7,159.055 km
Eccentricity
0.00748
Inclination
74.0139°
RAAN
78.287°
Arg. of periapsis
171.6735°
True anomaly
188.44126°
Mean anomaly
188.5677°
Eccentric anomaly
188.50436°
Mean motion
3.58311 °/min
Orbital period
100.47 mins
BSTAR
0.0002569
Loading maneuver chart data...
Computing Atmospheric mass density...
Loading historical data...
Loading historical data...
Loading historical data...
Loading historical data...
Loading historical data...
Loading historical data...
Loading historical data...

Documentation

Showing up to 5 results
|